Wind_Speed
12 12 12 11 10 11 11 12 13 14 14 15 16 18 19 21 22 12 8 2 3 11 7 8 7 7 6 5 6 2 5 6 3 3 10 8 7 0 2 8 3 3 3 17 26
14 13 13 12 11 11 11 12 13 14 15 15 16 17 17 20 17 11 3 7 7 13 11 10 4 4 5 3 4 5 4 7 3 2 2 5 4 8 4 5 4 6 11 27 28
15 15 14 13 13 13 12 12 13 14 14 15 16 16 15 17 8 3 7 7 13 15 8 9 6 8 7 4 3 1 4 3 4 3 2 3 5 6 7 6 3 9 17 23 26
16 17 16 15 14 14 14 14 13 14 14 14 15 15 13 6 1 3 6 5 16 15 10 9 6 8 4 3 2 3 1 2 2 2 3 5 5 3 7 2 3 13 19 20 21
17 18 18 17 16 15 16 15 14 13 13 13 13 11 5 6 5 2 9 5 10 10 11 9 8 6 5 2 2 3 0 3 2 2 1 3 4 1 5 1 9 16 19 19 18
18 19 20 19 19 17 17 15 14 13 12 11 10 7 6 9 1 2 3 3 7 11 9 8 4 7 3 3 4 1 3 1 4 2 2 5 3 7 5 7 13 17 18 17 17
19 21 23 22 19 20 17 15 14 12 12 10 6 3 8 10 2 3 6 6 6 10 7 4 5 8 4 3 0 1 4 4 5 3 1 3 7 5 10 10 13 15 16 16 15
21 23 24 24 22 22 20 17 14 11 8 5 3 3 6 3 4 10 10 11 10 8 7 6 4 2 5 2 4 4 5 3 4 5 3 6 8 7 11 11 12 14 14 15 16
22 25 26 26 26 25 21 14 8 2 2 3 2 5 3 3 7 6 9 9 9 7 4 2 5 3 5 10 8 3 7 6 3 6 2 8 4 9 13 11 10 12 15 15 16
23 26 27 26 29 25 15 5 2 4 3 2 4 6 7 3 2 3 6 9 9 8 7 8 7 10 7 11 8 10 7 3 3 4 9 9 9 7 13 13 11 10 12 15 16
24 26 28 26 29 16 10 3 5 6 8 8 2 6 1 5 3 8 8 11 11 9 14 12 11 12 5 8 6 7 6 4 2 1 6 9 9 6 12 14 12 12 12 13 15
24 27 29 26 27 6 7 4 5 5 8 8 11 13 13 6 5 10 10 14 12 15 13 9 16 13 2 4 6 6 4 4 4 1 7 7 11 8 12 15 14 14 13 12 13
24 27 29 27 16 6 4 3 2 8 6 3 4 7 5 9 7 9 13 18 14 18 15 20 18 9 7 10 9 10 7 4 7 3 10 10 13 6 11 14 15 15 14 13 13
24 26 29 28 3 9 1 3 10 4 5 7 5 4 7 5 7 10 13 12 10 18 17 17 16 10 15 14 8 15 6 5 5 7 5 3 5 7 7 11 15 16 16 16 16
25 25 31 23 12 5 2 6 5 4 6 4 6 3 4 11 3 12 11 11 16 14 12 18 17 16 17 15 4 9 5 3 7 10 8 7 6 7 3 7 11 14 16 15 15
26 28 30 7 6 6 6 7 4 6 3 5 4 5 9 13 7 9 12 8 8 13 14 20 14 19 22 12 5 1 7 7 8 8 9 7 5 2 3 3 1 3 7 12 15
29 29 20 7 2 4 7 4 6 6 3 5 2 5 9 12 11 12 17 16 12 13 15 18 16 17 13 14 8 10 12 7 5 5 3 6 8 4 5 2 3 2 2 5 9
32 22 9 7 5 4 6 6 7 2 2 1 3 5 9 12 15 11 17 17 19 15 9 13 16 17 14 21 16 15 15 9 5 4 6 3 4 4 4 0 1 6 6 4 6
25 5 3 2 4 6 6 9 2 3 2 6 4 8 9 10 6 13 14 18 16 16 14 12 18 20 17 15 15 11 12 12 10 7 8 3 2 10 5 3 7 7 8 6 7
14 5 1 4 5 9 8 12 3 2 3 4 3 2 6 12 10 15 14 11 17 17 18 7 8 14 16 14 8 13 5 8 11 8 9 2 4 7 6 10 2 8 9 10 11
5 4 5 7 4 6 9 9 6 6 6 4 1 5 3 5 10 11 12 10 14 18 17 14 9 9 17 19 20 10 13 12 8 4 7 9 2 5 6 5 2 6 10 13 14
5 4 4 1 6 4 9 5 2 8 6 8 6 8 9 1 6 10 12 12 15 14 19 19 10 10 18 18 16 15 21 18 10 10 7 7 11 11 4 3 1 7 11 13 13
5 2 4 4 5 8 4 7 6 8 8 5 6 5 2 5 4 8 6 3 7 14 17 17 10 11 11 15 10 14 16 13 14 11 10 10 8 5 1 2 3 12 13 12 14
4 4 4 5 3 8 5 6 7 6 9 8 9 7 9 11 10 5 7 4 7 15 5 13 17 15 12 16 18 19 18 15 18 13 12 10 14 9 8 2 4 11 14 14 14
3 2 5 5 9 6 5 1 5 6 7 5 7 11 7 6 7 9 9 6 6 5 6 14 18 11 14 13 10 20 21 20 18 17 17 12 13 9 13 7 3 11 14 15 16
4 3 2 4 3 8 6 8 10 6 6 9 9 2 7 10 8 2 6 2 3 6 10 15 11 14 15 14 10 13 16 18 17 19 10 14 16 14 9 2 5 9 16 16 17
2 3 4 4 5 5 6 8 5 2 6 7 8 8 9 3 8 13 12 12 9 6 7 13 10 8 14 10 12 15 16 14 13 13 13 16 16 15 10 10 5 8 17 19 18
Wind_Direction
19 14 10 6 357 350 344 336 329 327 327 325 326 325 327 328 325 304 280 118 187 187 176 175 226 230 218 250 234 252 267 27 77 266 104 153 127 266 356 146 79 25 129 130 154
24 21 17 11 1 352 344 336 329 325 324 324 325 324 328 328 318 282 247 247 222 191 195 207 258 215 232 244 182 268 325 24 11 350 97 168 156 161 163 165 125 90 112 138 156
23 18 14 6 1 354 344 332 325 322 322 323 326 324 327 327 279 112 308 247 195 187 249 276 279 261 260 241 154 42 9 68 54 358 259 207 162 193 154 229 157 155 143 152 161
16 11 5 1 350 343 341 333 322 316 316 321 326 324 324 303 228 70 4 166 185 190 258 271 248 257 270 265 69 249 91 7 50 7 195 194 147 189 203 60 2 145 157 158 169
13 8 4 358 351 344 335 329 320 312 311 317 322 325 317 241 248 173 48 75 169 200 238 248 270 284 310 3 194 266 127 223 163 326 201 146 173 228 207 302 136 145 160 169 175
9 5 1 354 348 343 336 327 316 307 301 303 310 314 268 250 91 196 255 328 209 212 225 238 303 330 313 23 306 9 286 259 226 269 177 189 169 221 129 141 145 158 167 173 179
3 359 356 351 346 339 332 318 304 293 290 291 287 285 256 254 163 238 273 260 237 233 253 257 300 278 346 178 195 133 243 195 192 211 108 179 196 201 136 154 157 168 173 172 177
357 352 347 347 344 335 326 311 300 293 281 261 226 251 262 226 243 260 253 250 237 233 260 293 259 281 289 129 201 261 223 321 126 230 134 227 99 150 161 170 169 172 176 177 182
351 346 345 345 342 333 325 313 306 258 165 157 204 250 249 229 234 197 211 228 191 200 216 230 229 287 208 248 208 196 2 14 132 207 236 224 342 148 173 185 176 176 178 187 186
347 344 343 344 340 334 338 344 123 129 140 204 250 247 235 172 213 229 211 222 201 183 182 221 231 239 221 250 14 346 332 50 11 165 230 244 263 162 187 198 187 182 180 189 194
347 343 341 342 338 338 350 265 212 185 207 264 69 288 194 326 229 198 191 192 208 216 216 205 233 231 250 21 344 318 320 336 80 155 258 256 267 231 192 207 203 194 192 186 198
346 341 338 340 336 335 356 305 51 8 291 237 252 258 268 292 267 201 185 198 202 215 214 204 227 242 53 316 305 305 308 56 130 245 253 279 275 218 207 207 212 204 205 202 186
343 340 336 341 338 5 318 107 68 332 261 186 222 248 229 200 231 202 200 212 210 218 210 228 217 224 244 258 275 284 312 349 349 289 245 282 252 200 207 216 208 220 212 210 207
341 338 334 339 323 336 176 174 320 260 263 133 174 145 183 224 231 206 215 201 210 222 218 236 235 220 229 254 289 291 17 277 284 289 342 316 323 161 195 207 216 218 218 216 208
337 335 330 335 303 281 24 313 314 228 237 107 129 101 185 210 90 180 182 209 216 208 220 219 226 216 238 241 345 324 332 316 300 280 279 148 264 107 165 217 228 220 225 215 216
333 331 325 335 279 264 305 313 215 231 197 136 132 181 177 205 190 137 182 224 252 226 216 248 209 229 238 226 236 318 240 237 245 256 248 66 314 183 73 6 307 137 210 214 202
330 326 311 278 342 298 304 222 230 248 134 136 144 188 212 186 199 194 190 197 197 204 213 217 220 221 244 232 196 240 256 260 246 223 54 38 288 4 11 340 265 244 80 181 188
331 323 297 240 258 309 227 226 245 54 252 111 261 235 218 195 213 196 200 208 218 230 216 205 210 214 202 232 229 220 257 275 244 309 346 146 260 44 17 103 91 148 139 149 179
336 317 236 244 253 211 224 223 256 211 15 342 241 215 187 192 240 201 212 217 206 219 234 212 229 183 211 211 230 201 234 266 297 236 254 303 295 266 100 112 176 174 161 156 139
327 289 164 285 195 202 227 247 217 244 316 305 277 287 214 179 203 199 197 215 227 205 238 198 246 198 207 228 211 265 3 215 219 267 271 295 257 254 326 9 138 170 170 136 136
275 255 44 111 161 212 225 227 240 216 274 302 260 301 237 215 228 205 215 212 216 199 219 237 234 190 207 209 213 191 230 243 312 308 302 284 281 75 306 18 357 158 148 147 144
294 231 157 281 205 211 233 234 342 248 214 267 283 276 265 210 236 225 227 230 202 208 206 221 220 229 210 226 227 248 219 232 225 223 234 298 285 291 320 336 221 160 148 146 144
304 312 168 270 226 207 179 237 255 246 235 240 256 239 323 283 259 224 209 253 197 202 211 201 224 224 225 184 205 232 232 252 257 261 281 283 290 79 289 219 196 163 151 151 152
278 211 159 221 287 279 208 216 237 201 265 255 270 278 267 263 232 248 219 150 189 224 359 204 230 226 224 225 211 213 228 225 242 242 244 236 280 310 315 280 179 179 168 157 158
233 84 343 190 210 229 236 253 236 247 209 238 237 247 276 276 230 219 230 173 170 149 216 225 226 230 239 253 248 213 221 221 233 251 266 285 292 299 303 331 291 197 181 166 162
304 318 209 290 244 234 195 238 257 243 237 215 242 349 281 255 293 325 348 252 95 166 200 225 240 232 230 228 232 247 240 241 217 251 273 275 278 283 307 351 274 201 182 182 172
347 270 281 138 212 237 215 240 267 312 244 273 301 308 274 351 316 302 288 284 286 296 195 211 222 212 230 204 226 231 236 214 222 223 248 256 260 262 295 299 281 214 192 190 179
Height
798 796 795 793 791 790 788 786 784 782 780 778 775 773 770 767 762 760 756 757 757 756 756 759 759 757 757 751 749 747 756 766 767 766 764 752 759 759 754 759 760 765 764 769 786
800 797 796 794 791 789 787 785 782 780 778 777 775 771 769 766 761 755 755 754 754 755 756 755 748 751 748 747 747 751 760 766 754 752 757 753 753 762 761 764 767 770 769 777 786
801 799 797 794 791 789 786 784 781 779 777 776 774 771 769 766 759 749 751 751 752 753 754 752 750 747 747 742 744 749 764 755 755 751 750 753 755 755 759 772 757 770 774 779 784
802 799 796 794 791 788 786 783 780 778 776 775 773 771 769 767 766 751 750 747 750 753 754 748 745 748 747 750 744 757 754 754 754 751 751 754 748 757 754 758 752 760 771 776 781
803 801 797 794 791 788 784 781 779 776 774 773 772 770 769 761 752 752 751 750 752 754 752 746 746 743 750 747 749 754 755 755 752 751 749 749 755 755 756 754 754 762 770 775 779
803 800 797 793 790 787 783 780 777 774 773 771 771 770 769 765 751 752 752 752 752 752 748 745 743 741 743 747 749 750 753 754 753 752 750 754 756 754 757 755 759 764 769 773 776
802 799 795 792 788 785 782 778 775 773 771 770 770 770 765 753 752 752 752 751 750 749 745 744 744 744 740 749 744 748 759 755 753 751 753 747 765 759 753 756 761 763 766 770 774
801 797 793 790 786 782 778 774 772 771 769 769 770 771 757 750 750 750 750 748 748 748 748 746 745 741 743 742 746 753 752 768 755 752 753 756 766 756 753 756 760 761 765 769 772
799 795 791 787 782 777 773 770 769 768 768 768 770 768 753 749 748 746 747 743 744 746 746 747 743 741 745 750 753 750 768 766 764 751 753 757 760 750 751 754 757 759 763 767 771
798 793 789 784 779 774 770 768 767 768 769 769 769 769 749 744 745 745 745 744 741 740 744 744 742 747 746 747 779 772 766 760 766 756 755 756 757 748 751 753 755 756 757 762 767
797 793 787 782 777 772 770 770 768 767 765 748 747 748 746 746 745 742 742 742 739 740 754 743 756 760 743 747 753 755 758 761 755 750 757 754 752 746 747 751 752 754 754 755 759
797 791 786 781 775 772 770 763 768 772 761 746 748 748 747 749 747 739 741 742 744 754 744 752 763 738 741 748 753 752 758 758 752 749 756 749 751 739 741 745 746 749 750 751 753
796 790 784 779 773 772 772 769 770 770 760 744 744 744 742 746 743 735 736 735 744 751 751 755 744 733 748 750 755 746 755 757 763 752 746 753 746 744 738 737 740 740 741 744 747
794 789 784 778 777 774 769 771 770 769 758 747 743 740 742 739 744 732 733 734 740 749 747 747 730 745 750 755 749 759 743 749 758 762 766 748 767 742 736 742 740 738 739 739 742
791 787 782 779 778 773 773 771 770 768 770 743 742 740 737 739 732 735 732 734 745 747 744 751 745 749 753 749 745 755 743 749 752 756 752 751 758 742 737 743 737 732 731 732 735
788 785 779 779 777 773 771 771 770 770 770 747 737 740 744 737 732 731 734 732 726 740 743 741 724 733 736 732 742 743 748 749 747 748 767 755 760 737 734 735 728 721 721 724 729
784 780 776 777 771 772 772 768 767 767 742 749 742 736 737 740 738 735 741 745 749 766 760 746 742 732 729 742 741 747 752 775 783 776 772 748 758 739 722 719 720 724 725 725 726
779 774 771 771 771 771 770 763 776 756 748 736 737 737 743 733 734 735 738 744 733 735 739 758 768 739 730 738 747 747 748 765 805 790 767 746 762 734 713 716 718 719 721 725 726
775 773 772 770 769 770 764 766 755 752 745 746 734 741 741 735 737 736 737 737 728 733 749 751 752 722 725 725 730 746 764 732 752 744 768 744 736 715 708 711 715 718 723 725 728
775 770 766 767 767 768 760 761 751 746 745 742 748 741 742 736 742 737 735 722 727 722 719 735 759 729 729 725 732 738 729 759 750 785 787 753 754 747 726 719 717 717 721 725 730
773 761 767 766 767 760 759 748 746 741 745 747 747 746 738 736 732 734 730 721 717 722 723 727 741 736 730 739 741 746 751 744 737 748 771 772 747 708 716 712 718 712 716 724 728
771 757 766 766 760 749 750 748 761 744 740 743 742 740 741 735 733 732 732 721 706 712 734 726 732 746 744 719 713 719 731 730 755 761 748 759 754 696 701 707 713 711 716 720 727
768 761 764 763 755 753 749 750 748 745 742 741 741 734 731 737 743 725 720 708 710 713 725 721 740 752 746 731 727 734 725 723 722 724 754 762 744 697 700 707 712 711 716 723 728
773 757 757 757 752 748 750 749 749 740 742 738 737 732 735 734 724 728 721 712 713 712 722 713 724 734 745 738 724 742 731 724 726 742 740 735 730 711 701 705 709 710 713 719 726
771 760 765 753 751 748 748 748 748 747 739 736 737 736 735 742 727 731 715 712 714 722 720 717 734 723 720 715 716 718 725 723 731 726 738 725 721 711 700 696 698 702 711 717 722
773 769 763 756 755 753 758 746 747 739 742 737 741 732 732 737 728 724 722 714 714 718 720 709 725 716 727 714 718 724 714 710 716 719 721 722 721 694 685 695 700 700 707 715 719
781 778 772 760 751 753 742 744 743 743 736 735 737 740 732 726 722 722 718 712 711 718 715 715 716 729 736 718 723 738 718 716 714 711 715 728 707 688 691 690 694 699 702 707 711